[[{"header":{"parameterUnit":"m.s-1","parameterCategory":1,"la1":30.2991,"la2":30.254,"lo1":-89.0895,"lo2":-89.0444,"dy":0.0017,"dx":0.0017,"nx":28,"ny":28,"refTime":"2023-09-21T09:00:00:Z","depth":0,"parameterNumber":2,"parameterNumberName":"U-component_of_WINDS"},"data":[0,0,0,0,0,0,0,0,0,0,0,0,0,0,0,0,0,0,0,0,0,0,0,0,0,0,0,0,0,0,0,0,0,0,0,0,0,0,0,0,0,0,0,0,0,0,0,0,0,0,0,0,0,0,0,0,0,0,-2.9168,-2.9167,0,-2.9144,-2.9144,-2.9144,-2.904,-2.9038,-2.9035,-2.9033,-2.9011,-2.9012,-2.9014,0,0,0,0,0,0,0,0,0,0,0,0,0,-2.9124,-2.9125,-2.9168,-2.9167,-2.9167,-2.9144,-2.9144,-2.9144,-2.9041,-2.9038,-2.9035,-2.9032,-2.901,-2.9012,-2.9014,0,0,0,0,0,0,0,0,0,0,0,0,0,-2.9126,-2.9126,-2.9168,-2.9113,-2.9108,-2.9144,-2.9144,-2.9144,-2.9041,-2.9038,-2.9034,-2.9031,-2.901,-2.9012,-2.9014,-2.9103,0,0,-2.9022,-2.9023,0,0,0,0,0,0,0,0,-2.9126,-2.9128,-2.9121,-2.9117,-2.9111,-2.9091,-2.912,-2.913,-2.9042,-2.9067,-2.9033,-2.9029,-2.9041,-2.904,-2.9044,-2.9102,-2.9101,-2.9022,-2.9024,-2.9025,-2.9026,0,0,0,0,0,0,0,-2.9126,-2.9128,-2.9158,-2.9121,-2.9115,-2.909,-2.9086,-2.9122,-2.9074,-2.9064,-2.9057,-2.9055,-2.9037,-2.9042,-2.9043,-2.91,-2.9022,-2.9024,-2.9026,-2.9027,-2.923,-2.9234,0,0,0,0,0,0,-2.9133,-2.9129,-2.9159,-2.9158,-2.911,-2.9094,-2.9089,-2.9101,-2.9074,-2.9066,-2.9058,-2.905,-2.9039,-2.904,-2.9042,-2.9144,-2.9025,-2.9027,-2.9029,-2.9226,-2.9231,-2.9235,0,0,0,0,0,0,-2.9133,-2.9137,-2.916,-2.9141,-2.9142,-2.9098,-2.9113,-2.9103,-2.9107,-2.9069,-2.906,-2.9072,-2.9037,-2.9038,-2.9088,-2.9142,-2.9028,-2.9031,-2.9222,-2.9228,-2.9233,-2.9349,0,0,0,0,0,0,-2.9132,-2.9138,-2.917,-2.9143,-2.9144,-2.9207,-2.9116,-2.9105,-2.9112,-2.9101,-2.908,-2.9072,-2.9034,-2.9085,-2.9091,-2.9143,-2.9033,-2.9217,-2.9224,-2.9231,-2.9341,-2.9358,-2.9374,0,0,0,0,0,-2.9131,-2.9204,-2.9173,-2.9177,-2.9184,-2.9211,-2.9211,-2.9165,-2.9117,-2.915,-2.9125,-2.9073,-2.9135,-2.9091,-2.9097,-2.9151,-2.9213,-2.9222,-2.9231,-2.9333,-2.9355,-2.9373,0,0,0,0,0,0,-2.924,-2.9199,-2.9164,-2.923,-2.9225,-2.9193,-2.9233,-2.9189,-2.9197,-2.9187,-2.913,-2.9126,-2.9185,-2.9172,-2.9125,-2.9235,-2.9165,-2.9176,-2.9241,-2.9262,-2.9278,-2.928,-2.9035,0,0,0,0,0,-2.9271,-2.9296,-2.926,-2.9322,-2.9321,-2.9278,-2.9288,-2.9252,-2.9244,-2.9242,-2.922,-2.9215,-2.9233,-2.9246,-2.9261,-2.9338,-2.9332,-2.9377,-2.9394,-2.9408,-2.9418,-2.9459,-2.9479,-2.9264,-2.9264,-2.9264,0,0,-2.9337,-2.9318,-2.9337,-2.9343,-2.9334,-2.9362,-2.9276,-2.9309,-2.9329,-2.9246,-2.9293,-2.9278,-2.9268,-2.9332,-2.9359,-2.9324,-2.9476,-2.9419,-2.943,-2.9433,-2.947,-2.9491,-2.9509,-2.927,-2.9269,-2.9268,0,0,-2.9471,-2.9459,-2.951,-2.9503,-2.9491,-2.9462,-2.9474,-2.9449,-2.9436,-2.9481,-2.942,-2.9444,-2.9476,-2.9471,-2.9474,-2.9607,-2.956,-2.9613,-2.97,-2.9741,-2.9758,-2.9773,-2.9822,-2.984,-2.9623,-2.9623,-2.9623,0,-2.9555,-2.9594,-2.9542,-2.9579,-2.9584,-2.9509,-2.9561,-2.9557,-2.9551,-2.9556,-2.9515,-2.9555,-2.9543,-2.9606,-2.9639,-2.9642,-2.9655,-2.9616,-2.976,-2.9774,-2.9787,-2.9833,-2.9852,-2.963,-2.9629,-2.9628,-2.9628,0,-2.9698,-2.9726,-2.9768,-2.9764,-2.9773,-2.9818,-2.9773,-2.9789,-2.9753,-2.9728,-2.9776,-2.9759,-2.9769,-2.9781,-2.9746,-2.984,-2.9818,-2.977,-2.9699,-2.9815,-2.9858,-2.9875,-2.9639,-2.9637,-2.9635,-2.9633,0,0,-2.9901,-2.9867,-2.9884,-2.9882,-2.9863,-2.9884,-2.9925,-2.9934,-2.995,-2.9948,-2.9982,-3.0011,-2.9966,-2.9968,-2.9932,-2.9968,-3.0076,-2.9914,-2.9913,-2.9947,-3.018,-3.0218,-3.0239,-3.0044,-3.0047,-3.005,-3.0181,0,-3.0031,-3.0099,-3.0054,-3.0129,-3.0155,-3.0085,-3.0121,-3.0114,-3.0092,-3.0111,-3.0086,-3.0109,-3.0047,-3.0048,-3.008,-3.0056,-3.0123,-3.0046,-3.0077,-3.0078,-3.0083,-3.0261,-3.0301,-3.0426,-3.0197,-3.02,-3.0202,0,-3.0192,-3.0197,-3.0276,-3.0252,-3.0261,-3.0294,-3.03,-3.0319,-3.0309,-3.0291,-3.0294,-3.0249,-3.0288,-3.0217,-3.0271,-3.022,-3.023,-3.022,-3.0224,-3.0227,-3.0149,-3.027,-3.0465,-3.0485,-3.0227,-3.0225,-3.0224,0,-3.0334,-3.0361,-3.0411,-3.0411,-3.0385,-3.041,-3.04,-3.0387,-3.0396,-3.0401,-3.0406,-3.0416,-3.0422,-3.043,-3.039,-3.0341,-3.045,-3.0375,-3.0437,-3.0438,-3.0464,-3.0464,-3.0665,-3.0468,-3.0468,-3.0467,-3.0467,0,-3.0485,-3.0536,-3.0475,-3.0507,-3.0562,-3.0509,-3.0566,-3.0549,-3.0538,-3.0565,-3.0504,-3.0532,-3.0475,-3.0496,-3.0464,-3.0515,-3.0518,-3.0505,-3.0496,-3.0511,-3.0514,-3.0518,-3.0509,-3.0472,-3.0471,-3.047,-3.0469,0,-3.0655,-3.0615,-3.0666,-3.0637,-3.0631,-3.0674,-3.0649,-3.0677,-3.065,-3.0686,-3.0691,-3.0651,-3.0673,-3.0632,-3.0649,-3.0628,-3.07,-3.0676,-3.0703,-3.0697,-3.0762,-3.0757,-3.0975,-3.1002,-3.0786,-3.0788,-3.079,0,-3.0754,-3.0792,-3.0767,-3.0781,-3.0774,-3.0797,-3.0806,-3.0755,-3.0767,-3.076,-3.0789,-3.0806,-3.0817,-3.0856,-3.0829,-3.0842,-3.082,-3.0895,-3.0821,-3.0836,-3.0823,-3.0822,-3.0826,-3.0911,-3.0914,-3.0916,-3.0917,0,-3.0936,-3.0915,-3.0929,-3.0938,-3.095,-3.0955,-3.0955,-3.097,-3.0916,-3.0932,-3.0954,-3.0963,-3.098,-3.0999,-3.1005,-3.0995,-3.0949,-3.0941,-3.0956,-3.0973,-3.0988,-3.0983,-3.0747,-3.0936,-3.0934,-3.0933,-3.0932,-3.0931,-3.1075,-3.1105,-3.1093,-3.1112,-3.1106,-3.1108,-3.1133,-3.111,-3.1127,-3.1137,-3.1106,-3.1136,-3.1126,-3.1129,-3.1125,-3.1148,-3.1114,-3.1136,-3.1142,-3.1149,-3.116,-3.0983,-3.1148,-3.1148,-3.1147,-3.1147,-3.1146,0,-3.1255,-3.1243,-3.1261,-3.1263,-3.1278,-3.1231,-3.1228,-3.1245,-3.1271,-3.1266,-3.1278,-3.1304,-3.1321,-3.1295,-3.1308,-3.1332,-3.1311,-3.1337,-3.1336,-3.1335,-3.1188,-3.1174,-3.1354,-3.1354,-3.1354,-3.1354,-3.1354,-3.1354,-3.135,-3.14,-3.1378,-3.1425,-3.1412,-3.1441,-3.1444,-3.1445,-3.1441,-3.1472,-3.1486,-3.1469,-3.1455,-3.1467,-3.1481,-3.1473,-3.1482,-3.1516,-3.1501,-3.1365,-3.1345,-3.1326,-3.1312,-3.1518,-3.1518,-3.1646,-3.1647,-3.1648]},{"header":{"parameterUnit":"m.s-1","parameterCategory":1,"la1":30.2991,"la2":30.254,"lo1":-89.0895,"lo2":-89.0444,"dy":0.0017,"dx":0.0017,"nx":28,"ny":28,"refTime":"2023-09-21T09:00:00:Z","depth":0,"parameterNumber":3,"parameterNumberName":"V-component_of_WINDS"},"data":[0,0,0,0,0,0,0,0,0,0,0,0,0,0,0,0,0,0,0,0,0,0,0,0,0,0,0,0,0,0,0,0,0,0,0,0,0,0,0,0,0,0,0,0,0,0,0,0,0,0,0,0,0,0,0,0,0,0,0.6042,0.6041,0,0.5903,0.5902,0.59,0.5807,0.5806,0.5806,0.5805,0.5661,0.5658,0.5655,0,0,0,0,0,0,0,0,0,0,0,0,0,0.6228,0.6225,0.6042,0.6041,0.6039,0.5904,0.5902,0.59,0.5807,0.5806,0.5805,0.5805,0.5662,0.5658,0.5654,0,0,0,0,0,0,0,0,0,0,0,0,0,0.6124,0.6224,0.6043,0.5976,0.5969,0.5904,0.5902,0.5899,0.5807,0.5806,0.5805,0.5804,0.5663,0.5659,0.5654,0.5643,0,0,0.5639,0.5637,0,0,0,0,0,0,0,0,0.613,0.6117,0.5988,0.5981,0.5973,0.5871,0.5914,0.5813,0.5807,0.5869,0.5805,0.5804,0.5732,0.5721,0.5697,0.5636,0.563,0.5639,0.5636,0.5633,0.5632,0,0,0,0,0,0,0,0.6137,0.6123,0.5987,0.5986,0.5977,0.5954,0.5938,0.5895,0.5807,0.5863,0.5856,0.5841,0.5727,0.5702,0.5693,0.5628,0.5639,0.5634,0.5631,0.5629,0.5552,0.5553,0,0,0,0,0,0,0.6155,0.6129,0.5992,0.5983,0.6051,0.5951,0.5933,0.5905,0.5807,0.5792,0.5842,0.5837,0.5711,0.5699,0.5688,0.5668,0.5634,0.5629,0.5626,0.5551,0.5552,0.5553,0,0,0,0,0,0,0.6159,0.6144,0.5997,0.6054,0.6034,0.5949,0.5918,0.5903,0.5877,0.5791,0.5775,0.5832,0.571,0.5694,0.5655,0.5662,0.5627,0.5622,0.555,0.5552,0.5553,0.563,0,0,0,0,0,0,0.6165,0.6146,0.614,0.6055,0.6031,0.5967,0.5918,0.5901,0.5869,0.5862,0.5778,0.5763,0.5708,0.5663,0.565,0.5654,0.5619,0.5549,0.5551,0.5553,0.5626,0.5633,0.564,0,0,0,0,0,0.6172,0.6167,0.6141,0.6125,0.6023,0.5968,0.5954,0.5891,0.587,0.5864,0.581,0.5766,0.5664,0.566,0.5645,0.5648,0.5549,0.5551,0.5552,0.5623,0.5632,0.564,0,0,0,0,0,0,0.6254,0.6155,0.6124,0.6091,0.6039,0.5952,0.5942,0.5902,0.5854,0.5849,0.5772,0.5754,0.5723,0.5681,0.5678,0.5633,0.5601,0.56,0.566,0.5668,0.5675,0.5684,0.5615,0,0,0,0,0,0.6269,0.6233,0.6148,0.6127,0.6103,0.6028,0.6001,0.5957,0.59,0.5877,0.5819,0.5764,0.572,0.5692,0.5646,0.5621,0.5601,0.5616,0.5623,0.5629,0.5628,0.5611,0.5617,0.556,0.556,0.556,0,0,0.6298,0.624,0.6221,0.6142,0.6096,0.606,0.6009,0.5973,0.5945,0.5871,0.583,0.5786,0.572,0.5688,0.5671,0.5653,0.564,0.5631,0.5637,0.5632,0.5614,0.5619,0.5624,0.5561,0.5561,0.5561,0,0,0.6333,0.6285,0.6263,0.6219,0.615,0.6101,0.6096,0.6016,0.5984,0.5942,0.5886,0.5853,0.5778,0.5733,0.5701,0.5722,0.568,0.571,0.5744,0.5729,0.5733,0.5737,0.5743,0.5747,0.571,0.571,0.571,0,0.6377,0.6321,0.6256,0.6223,0.619,0.6124,0.61,0.606,0.5981,0.596,0.5941,0.5847,0.5798,0.5754,0.576,0.5736,0.5728,0.5717,0.5738,0.5741,0.5743,0.5748,0.5751,0.5714,0.5713,0.5713,0.5713,0,0.6378,0.6341,0.6331,0.6256,0.6223,0.6195,0.6127,0.6101,0.6061,0.6014,0.5973,0.5913,0.5854,0.5841,0.5801,0.5792,0.5783,0.5753,0.5719,0.5754,0.5757,0.5759,0.572,0.5718,0.5717,0.5716,0,0,0.6456,0.635,0.6347,0.6313,0.6234,0.6203,0.6174,0.6117,0.6096,0.6045,0.6017,0.5957,0.5929,0.5893,0.5848,0.5835,0.5855,0.5806,0.5804,0.5816,0.584,0.5862,0.5865,0.5829,0.5829,0.5829,0.5845,0,0.6477,0.642,0.6362,0.6325,0.6289,0.6227,0.6201,0.615,0.6107,0.607,0.6022,0.598,0.5947,0.5924,0.5909,0.5856,0.5859,0.5855,0.5801,0.58,0.5816,0.5867,0.5889,0.5908,0.5847,0.5847,0.5847,0,0.6492,0.6445,0.6405,0.6331,0.6314,0.6291,0.6236,0.6202,0.6144,0.6113,0.6074,0.6028,0.5993,0.5967,0.5918,0.5917,0.5892,0.5863,0.5862,0.5852,0.5823,0.5857,0.5912,0.5914,0.5849,0.5849,0.5848,0,0.6552,0.6478,0.6444,0.6417,0.6331,0.6317,0.628,0.6221,0.6191,0.6143,0.6123,0.6072,0.6043,0.6005,0.5946,0.5932,0.5904,0.5872,0.5876,0.5877,0.587,0.587,0.592,0.5859,0.5859,0.5859,0.5859,0,0.6579,0.6556,0.647,0.6449,0.6422,0.6357,0.6333,0.629,0.6239,0.6209,0.6153,0.6126,0.6051,0.6015,0.5969,0.5936,0.5924,0.5897,0.5885,0.5901,0.5904,0.5881,0.5877,0.5859,0.5859,0.5859,0.5859,0,0.6639,0.658,0.6539,0.6462,0.6442,0.6426,0.6359,0.6337,0.6292,0.6254,0.6242,0.617,0.6125,0.6064,0.6,0.5969,0.5941,0.5923,0.5961,0.5953,0.596,0.5959,0.5994,0.5995,0.5936,0.5937,0.5937,0,0.6658,0.6639,0.6561,0.6537,0.6503,0.6465,0.6435,0.6372,0.6343,0.6277,0.6263,0.6214,0.6171,0.6103,0.6045,0.5996,0.5974,0.599,0.5966,0.5983,0.5972,0.5973,0.5971,0.5995,0.5996,0.5997,0.5997,0,0.6699,0.6672,0.6631,0.6581,0.6547,0.6504,0.6458,0.6442,0.6369,0.634,0.6294,0.6261,0.6197,0.6149,0.6093,0.6055,0.6014,0.6006,0.6004,0.6018,0.604,0.6027,0.5974,0.6005,0.6004,0.6003,0.6003,0.6003,0.6737,0.6718,0.6661,0.6617,0.6577,0.6537,0.6512,0.6465,0.6425,0.6368,0.6334,0.629,0.6234,0.6155,0.6119,0.6083,0.6067,0.6064,0.6063,0.6063,0.6068,0.6049,0.6073,0.6073,0.6073,0.6072,0.6072,0,0.6774,0.6735,0.6696,0.6635,0.6601,0.6568,0.6517,0.649,0.6452,0.6404,0.6364,0.6312,0.6266,0.6206,0.6156,0.6139,0.6119,0.6128,0.6127,0.6119,0.6086,0.6092,0.6145,0.6145,0.6145,0.6145,0.6145,0.6145,0.6788,0.6754,0.6721,0.6666,0.6627,0.6583,0.6557,0.652,0.6481,0.6425,0.6387,0.635,0.6297,0.6243,0.6199,0.6183,0.6166,0.618,0.6158,0.6128,0.6121,0.6115,0.612,0.6178,0.6178,0.6193,0.6193,0.6194]}]]